date,time,SUV Intensity [MED/Hr],UV Index,Daily total [MED],Since Last [MED]
22/02/2022,00:04:58,-0.000,0.0,0.0,0.0
22/02/2022,00:05:57,0.000,0.0,0.0,0.0
22/02/2022,00:06:57,0.001,0.0,0.0,0.0
22/02/2022,00:07:57,-0.001,0.0,0.0,0.0
22/02/2022,00:08:57,-0.001,0.0,0.0,0.0
22/02/2022,00:09:58,-0.000,0.0,0.0,0.0
22/02/2022,00:10:57,-0.000,0.0,0.0,0.0
22/02/2022,00:11:57,-0.000,0.0,0.0,0.0
22/02/2022,00:12:57,-0.001,0.0,0.0,0.0
22/02/2022,00:13:58,-0.001,0.0,0.0,0.0
22/02/2022,00:14:58,-0.001,0.0,0.0,0.0
22/02/2022,00:15:58,-0.000,0.0,0.0,0.0
22/02/2022,00:16:57,-0.000,0.0,0.0,0.0
22/02/2022,00:17:57,-0.001,0.0,0.0,0.0
22/02/2022,00:18:58,-0.000,0.0,0.0,0.0
22/02/2022,00:19:57,0.001,0.0,0.0,0.0
22/02/2022,00:20:57,-0.000,0.0,0.0,0.0
22/02/2022,00:21:57,0.000,0.0,0.0,0.0
22/02/2022,00:22:57,-0.000,0.0,0.0,0.0
22/02/2022,00:23:58,-0.001,0.0,0.0,0.0
22/02/2022,00:24:57,-0.001,0.0,0.0,0.0
22/02/2022,00:25:57,0.001,0.0,0.0,0.0
22/02/2022,00:26:57,-0.000,0.0,0.0,0.0
22/02/2022,00:27:57,-0.000,0.0,0.0,0.0
22/02/2022,00:28:58,-0.000,0.0,0.0,0.0
22/02/2022,00:29:57,-0.000,0.0,0.0,0.0
22/02/2022,00:30:57,-0.000,0.0,0.0,0.0
22/02/2022,00:32:05,-0.000,0.0,0.0,0.0
22/02/2022,00:32:57,-0.000,0.0,0.0,0.0
22/02/2022,00:33:57,-0.001,0.0,0.0,0.0
22/02/2022,00:35:05,-0.000,0.0,0.0,0.0
22/02/2022,00:35:57,-0.001,0.0,0.0,0.0
22/02/2022,00:36:58,-0.000,0.0,0.0,0.0
22/02/2022,00:38:06,-0.000,0.0,0.0,0.0
22/02/2022,00:38:58,-0.000,0.0,0.0,0.0
22/02/2022,00:39:58,-0.000,0.0,0.0,0.0
22/02/2022,00:40:57,-0.001,0.0,0.0,0.0
22/02/2022,00:41:58,-0.000,0.0,0.0,0.0
22/02/2022,00:42:58,-0.001,0.0,0.0,0.0
22/02/2022,00:43:57,-0.000,0.0,0.0,0.0
22/02/2022,00:44:58,-0.000,0.0,0.0,0.0
22/02/2022,00:45:57,0.000,0.0,0.0,0.0
22/02/2022,00:46:57,-0.001,0.0,0.0,0.0
22/02/2022,00:48:06,-0.000,0.0,0.0,0.0
22/02/2022,00:48:56,-0.000,0.0,0.0,0.0
22/02/2022,00:49:58,-0.000,0.0,0.0,0.0
22/02/2022,00:50:58,-0.000,0.0,0.0,0.0
22/02/2022,00:51:57,-0.001,0.0,0.0,0.0
22/02/2022,00:52:57,-0.001,0.0,0.0,0.0
22/02/2022,00:53:57,-0.000,0.0,0.0,0.0
22/02/2022,00:54:58,-0.000,0.0,0.0,0.0
22/02/2022,00:55:58,-0.001,0.0,0.0,0.0
22/02/2022,00:56:57,-0.001,0.0,0.0,0.0
22/02/2022,00:57:57,-0.001,0.0,0.0,0.0
22/02/2022,00:58:58,-0.000,0.0,0.0,0.0
22/02/2022,00:59:58,-0.001,0.0,0.0,0.0
22/02/2022,01:00:58,-0.001,0.0,0.0,0.0
22/02/2022,01:01:57,-0.001,0.0,0.0,0.0
22/02/2022,01:03:06,-0.001,0.0,0.0,0.0
22/02/2022,01:03:57,-0.001,0.0,0.0,0.0
22/02/2022,01:04:57,-0.001,0.0,0.0,0.0
22/02/2022,01:05:57,-0.001,0.0,0.0,0.0
22/02/2022,01:06:58,-0.001,0.0,0.0,0.0
22/02/2022,01:07:58,-0.001,0.0,0.0,0.0
22/02/2022,01:08:58,-0.001,0.0,0.0,0.0
22/02/2022,01:09:57,-0.001,0.0,0.0,0.0
22/02/2022,01:10:57,-0.001,0.0,0.0,0.0
22/02/2022,01:11:58,-0.001,0.0,0.0,0.0
22/02/2022,01:12:58,-0.001,0.0,0.0,0.0
22/02/2022,01:14:05,-0.001,0.0,0.0,0.0
22/02/2022,01:14:57,-0.001,0.0,0.0,0.0
22/02/2022,01:15:58,-0.001,0.0,0.0,0.0
22/02/2022,01:16:58,-0.001,0.0,0.0,0.0
22/02/2022,01:17:57,-0.001,0.0,0.0,0.0
22/02/2022,01:18:58,-0.001,0.0,0.0,0.0
22/02/2022,01:19:57,-0.001,0.0,0.0,0.0
22/02/2022,01:20:58,-0.001,0.0,0.0,0.0
22/02/2022,01:21:57,-0.001,0.0,0.0,0.0
22/02/2022,01:22:57,-0.001,0.0,0.0,0.0
22/02/2022,01:23:58,-0.001,0.0,0.0,0.0
22/02/2022,01:24:58,-0.001,0.0,0.0,0.0
22/02/2022,01:25:57,-0.001,0.0,0.0,0.0
22/02/2022,01:26:58,-0.001,0.0,0.0,0.0
22/02/2022,01:27:58,-0.001,0.0,0.0,0.0
22/02/2022,01:28:58,-0.001,0.0,0.0,0.0
22/02/2022,01:29:58,-0.001,0.0,0.0,0.0
22/02/2022,01:30:58,-0.001,0.0,0.0,0.0
22/02/2022,01:31:57,-0.001,0.0,0.0,0.0
22/02/2022,01:32:58,-0.001,0.0,0.0,0.0
22/02/2022,01:33:58,-0.001,0.0,0.0,0.0
22/02/2022,01:35:06,-0.001,0.0,0.0,0.0
22/02/2022,01:35:57,-0.001,0.0,0.0,0.0
22/02/2022,01:36:58,-0.001,0.0,0.0,0.0
22/02/2022,01:38:06,-0.001,0.0,0.0,0.0
22/02/2022,01:38:58,-0.001,0.0,0.0,0.0
22/02/2022,01:39:57,-0.001,0.0,0.0,0.0
22/02/2022,01:40:57,-0.001,0.0,0.0,0.0
22/02/2022,01:41:58,-0.001,0.0,0.0,0.0
22/02/2022,01:42:58,-0.001,0.0,0.0,0.0
22/02/2022,01:43:58,-0.001,0.0,0.0,0.0
22/02/2022,01:44:57,-0.001,0.0,0.0,0.0
22/02/2022,01:45:57,-0.001,0.0,0.0,0.0
22/02/2022,01:46:57,-0.001,0.0,0.0,0.0
22/02/2022,01:47:58,-0.001,0.0,0.0,0.0
22/02/2022,01:48:58,-0.001,0.0,0.0,0.0
22/02/2022,01:49:57,-0.001,0.0,0.0,0.0
22/02/2022,01:50:57,-0.001,0.0,0.0,0.0
22/02/2022,01:51:57,-0.001,0.0,0.0,0.0
22/02/2022,01:52:57,-0.001,0.0,0.0,0.0
22/02/2022,01:53:58,-0.001,0.0,0.0,0.0
22/02/2022,01:54:57,-0.001,0.0,0.0,0.0
22/02/2022,01:56:06,-0.001,0.0,0.0,0.0
22/02/2022,01:56:58,-0.001,0.0,0.0,0.0
22/02/2022,01:57:57,-0.001,0.0,0.0,0.0
22/02/2022,01:58:58,-0.001,0.0,0.0,0.0
22/02/2022,01:59:58,-0.001,0.0,0.0,0.0
22/02/2022,02:00:58,-0.001,0.0,0.0,0.0
22/02/2022,02:01:57,-0.001,0.0,0.0,0.0
22/02/2022,02:02:58,-0.001,0.0,0.0,0.0
22/02/2022,02:03:58,-0.001,0.0,0.0,0.0
22/02/2022,02:04:58,-0.001,0.0,0.0,0.0
22/02/2022,02:05:57,-0.001,0.0,0.0,0.0
22/02/2022,02:06:57,-0.001,0.0,0.0,0.0
22/02/2022,02:07:57,-0.001,0.0,0.0,0.0
22/02/2022,02:09:06,-0.001,0.0,0.0,0.0
22/02/2022,02:09:57,-0.001,0.0,0.0,0.0
22/02/2022,02:10:57,-0.001,0.0,0.0,0.0
22/02/2022,02:11:58,0.000,0.0,0.0,0.0
22/02/2022,02:12:57,-0.001,0.0,0.0,0.0
22/02/2022,02:13:58,-0.001,0.0,0.0,0.0
22/02/2022,02:15:06,-0.001,0.0,0.0,0.0
22/02/2022,02:15:57,-0.001,0.0,0.0,0.0
22/02/2022,02:16:58,-0.001,0.0,0.0,0.0
22/02/2022,02:17:58,0.000,0.0,0.0,0.0
22/02/2022,02:18:58,-0.001,0.0,0.0,0.0
22/02/2022,02:19:58,-0.001,0.0,0.0,0.0
22/02/2022,02:20:58,-0.001,0.0,0.0,0.0
22/02/2022,02:21:57,-0.001,0.0,0.0,0.0
22/02/2022,02:22:58,-0.001,0.0,0.0,0.0
22/02/2022,02:23:58,-0.001,0.0,0.0,0.0
22/02/2022,02:24:58,-0.001,0.0,0.0,0.0
22/02/2022,02:25:57,-0.001,0.0,0.0,0.0
22/02/2022,02:26:57,-0.001,0.0,0.0,0.0
22/02/2022,02:28:05,-0.001,0.0,0.0,0.0
22/02/2022,02:28:57,-0.001,0.0,0.0,0.0
22/02/2022,02:30:06,-0.001,0.0,0.0,0.0
22/02/2022,02:30:58,-0.001,0.0,0.0,0.0
22/02/2022,02:31:58,-0.001,0.0,0.0,0.0
22/02/2022,02:32:57,-0.001,0.0,0.0,0.0
22/02/2022,02:33:57,-0.001,0.0,0.0,0.0
22/02/2022,02:34:58,-0.001,0.0,0.0,0.0
22/02/2022,02:35:58,-0.001,0.0,0.0,0.0
22/02/2022,02:36:58,-0.001,0.0,0.0,0.0
22/02/2022,02:37:58,-0.001,0.0,0.0,0.0
22/02/2022,02:38:58,-0.001,0.0,0.0,0.0
22/02/2022,02:39:57,-0.001,0.0,0.0,0.0
22/02/2022,02:40:58,-0.001,0.0,0.0,0.0
22/02/2022,02:41:58,-0.001,0.0,0.0,0.0
22/02/2022,02:43:06,-0.001,0.0,0.0,0.0
22/02/2022,02:43:58,-0.001,0.0,0.0,0.0
22/02/2022,02:44:58,-0.001,0.0,0.0,0.0
22/02/2022,02:45:57,-0.001,0.0,0.0,0.0
22/02/2022,02:46:58,-0.001,0.0,0.0,0.0
22/02/2022,02:48:00,-0.001,0.0,0.0,0.0
22/02/2022,02:49:06,-0.001,0.0,0.0,0.0
22/02/2022,02:49:57,-0.001,0.0,0.0,0.0
22/02/2022,02:50:58,-0.001,0.0,0.0,0.0
22/02/2022,02:51:58,-0.001,0.0,0.0,0.0
22/02/2022,02:52:58,-0.001,0.0,0.0,0.0
22/02/2022,02:53:58,-0.001,0.0,0.0,0.0
22/02/2022,02:54:57,-0.001,0.0,0.0,0.0
22/02/2022,02:55:57,-0.001,0.0,0.0,0.0
22/02/2022,02:56:58,-0.001,0.0,0.0,0.0
22/02/2022,02:57:58,-0.001,0.0,0.0,0.0
22/02/2022,02:58:58,-0.001,0.0,0.0,0.0
22/02/2022,02:59:57,-0.001,0.0,0.0,0.0
22/02/2022,03:00:58,-0.001,0.0,0.0,0.0
22/02/2022,03:02:06,-0.001,0.0,0.0,0.0
22/02/2022,03:02:58,-0.001,0.0,0.0,0.0
22/02/2022,03:03:58,-0.001,0.0,0.0,0.0
22/02/2022,03:04:58,-0.001,0.0,0.0,0.0
22/02/2022,03:05:58,-0.002,0.0,0.0,0.0
22/02/2022,03:06:57,-0.001,0.0,0.0,0.0
22/02/2022,03:07:57,-0.001,0.0,0.0,0.0
22/02/2022,03:08:58,-0.001,0.0,0.0,0.0
22/02/2022,03:09:57,-0.001,0.0,0.0,0.0
22/02/2022,03:10:57,-0.001,0.0,0.0,0.0
22/02/2022,03:11:58,-0.001,0.0,0.0,0.0
22/02/2022,03:12:58,-0.001,0.0,0.0,0.0
22/02/2022,03:14:06,-0.001,0.0,0.0,0.0
22/02/2022,03:14:56,-0.001,0.0,0.0,0.0
22/02/2022,03:15:58,-0.001,0.0,0.0,0.0
22/02/2022,03:16:58,-0.001,0.0,0.0,0.0
22/02/2022,03:17:58,-0.001,0.0,0.0,0.0
22/02/2022,03:18:57,-0.001,0.0,0.0,0.0
22/02/2022,03:20:06,-0.001,0.0,0.0,0.0
22/02/2022,03:20:58,-0.001,0.0,0.0,0.0
22/02/2022,03:21:55,-0.001,0.0,0.0,0.0
22/02/2022,03:23:06,-0.001,0.0,0.0,0.0
22/02/2022,03:23:56,-0.001,0.0,0.0,0.0
22/02/2022,03:24:58,-0.001,0.0,0.0,0.0
22/02/2022,03:25:58,-0.001,0.0,0.0,0.0
22/02/2022,03:26:58,-0.001,0.0,0.0,0.0
22/02/2022,03:27:58,-0.001,0.0,0.0,0.0
22/02/2022,03:28:58,-0.001,0.0,0.0,0.0
22/02/2022,03:29:57,-0.001,0.0,0.0,0.0
22/02/2022,03:30:58,-0.001,0.0,0.0,0.0
22/02/2022,03:31:58,-0.001,0.0,0.0,0.0
22/02/2022,03:33:06,-0.001,0.0,0.0,0.0
22/02/2022,03:33:58,-0.002,0.0,0.0,0.0
22/02/2022,03:34:58,-0.001,0.0,0.0,0.0
22/02/2022,03:36:06,-0.001,0.0,0.0,0.0
22/02/2022,03:36:58,-0.002,0.0,0.0,0.0
22/02/2022,03:37:57,-0.001,0.0,0.0,0.0
22/02/2022,03:38:58,-0.001,0.0,0.0,0.0
22/02/2022,03:39:58,-0.001,0.0,0.0,0.0
22/02/2022,03:41:51,-0.000,0.0,0.0,0.0
22/02/2022,03:42:58,-0.001,0.0,0.0,0.0
22/02/2022,03:43:57,-0.001,0.0,0.0,0.0
22/02/2022,03:44:57,-0.001,0.0,0.0,0.0
22/02/2022,03:45:58,-0.001,0.0,0.0,0.0
22/02/2022,03:46:58,-0.001,0.0,0.0,0.0
22/02/2022,03:47:58,-0.001,0.0,0.0,0.0
22/02/2022,03:48:57,-0.001,0.0,0.0,0.0
22/02/2022,03:49:57,-0.001,0.0,0.0,0.0
22/02/2022,03:50:59,-0.001,0.0,0.0,0.0
22/02/2022,03:51:58,-0.001,0.0,0.0,0.0
22/02/2022,03:52:58,-0.001,0.0,0.0,0.0
22/02/2022,03:53:58,-0.001,0.0,0.0,0.0
22/02/2022,03:54:57,-0.001,0.0,0.0,0.0
22/02/2022,03:55:57,-0.001,0.0,0.0,0.0
22/02/2022,03:57:06,-0.001,0.0,0.0,0.0
22/02/2022,03:57:56,-0.001,0.0,0.0,0.0
22/02/2022,03:58:58,-0.001,0.0,0.0,0.0
22/02/2022,03:59:58,-0.001,0.0,0.0,0.0
22/02/2022,04:00:58,-0.001,0.0,0.0,0.0
22/02/2022,04:01:58,-0.001,0.0,0.0,0.0
22/02/2022,04:02:58,-0.000,0.0,0.0,0.0
22/02/2022,04:04:58,-0.001,0.0,0.0,0.0
22/02/2022,04:05:58,-0.001,0.0,0.0,0.0
22/02/2022,04:06:58,-0.001,0.0,0.0,0.0
22/02/2022,04:07:58,-0.001,0.0,0.0,0.0
22/02/2022,04:08:58,-0.001,0.0,0.0,0.0
22/02/2022,04:10:06,-0.001,0.0,0.0,0.0
22/02/2022,04:10:57,-0.001,0.0,0.0,0.0
22/02/2022,04:11:57,-0.001,0.0,0.0,0.0
22/02/2022,04:13:06,-0.001,0.0,0.0,0.0
22/02/2022,04:13:58,-0.001,0.0,0.0,0.0
22/02/2022,04:14:58,-0.001,0.0,0.0,0.0
22/02/2022,04:15:58,-0.001,0.0,0.0,0.0
22/02/2022,04:16:58,-0.001,0.0,0.0,0.0
22/02/2022,04:17:58,-0.001,0.0,0.0,0.0
22/02/2022,04:19:07,-0.001,0.0,0.0,0.0
22/02/2022,04:19:57,-0.001,0.0,0.0,0.0
22/02/2022,04:20:58,-0.001,0.0,0.0,0.0
22/02/2022,04:21:58,-0.001,0.0,0.0,0.0
22/02/2022,04:22:58,-0.001,0.0,0.0,0.0
22/02/2022,04:23:57,-0.001,0.0,0.0,0.0
22/02/2022,04:24:58,-0.001,0.0,0.0,0.0
22/02/2022,04:25:58,-0.001,0.0,0.0,0.0
22/02/2022,04:26:58,-0.001,0.0,0.0,0.0
22/02/2022,04:27:58,-0.002,0.0,0.0,0.0
22/02/2022,04:28:58,-0.001,0.0,0.0,0.0
22/02/2022,04:29:57,-0.001,0.0,0.0,0.0
22/02/2022,04:30:58,-0.001,0.0,0.0,0.0
22/02/2022,04:32:07,-0.001,0.0,0.0,0.0
22/02/2022,04:32:57,-0.001,0.0,0.0,0.0
22/02/2022,04:33:58,-0.001,0.0,0.0,0.0
22/02/2022,04:35:06,-0.001,0.0,0.0,0.0
22/02/2022,04:35:58,-0.001,0.0,0.0,0.0
22/02/2022,04:36:58,-0.001,0.0,0.0,0.0
22/02/2022,04:37:59,-0.001,0.0,0.0,0.0
22/02/2022,04:38:58,-0.001,0.0,0.0,0.0
22/02/2022,04:39:58,-0.002,0.0,0.0,0.0
22/02/2022,04:40:58,-0.001,0.0,0.0,0.0
22/02/2022,04:41:58,-0.001,0.0,0.0,0.0
22/02/2022,04:42:58,-0.001,0.0,0.0,0.0
22/02/2022,04:43:57,-0.002,0.0,0.0,0.0
22/02/2022,04:44:59,-0.001,0.0,0.0,0.0
22/02/2022,04:45:58,-0.001,0.0,0.0,0.0
22/02/2022,04:46:58,-0.001,0.0,0.0,0.0
22/02/2022,04:47:58,-0.001,0.0,0.0,0.0
22/02/2022,04:48:58,-0.001,0.0,0.0,0.0
22/02/2022,04:49:58,-0.002,0.0,0.0,0.0
22/02/2022,04:50:58,-0.001,0.0,0.0,0.0
22/02/2022,04:51:58,-0.002,0.0,0.0,0.0
22/02/2022,04:52:59,-0.001,0.0,0.0,0.0
22/02/2022,04:53:58,-0.002,0.0,0.0,0.0
22/02/2022,04:54:58,-0.003,0.0,0.0,0.0
22/02/2022,04:56:06,-0.001,0.0,0.0,0.0
22/02/2022,04:56:58,-0.001,0.0,0.0,0.0
22/02/2022,04:57:58,-0.001,0.0,0.0,0.0
22/02/2022,04:59:06,-0.001,0.0,0.0,0.0
22/02/2022,04:59:58,-0.001,0.0,0.0,0.0
22/02/2022,05:00:58,-0.001,0.0,0.0,0.0
22/02/2022,05:01:58,-0.001,0.0,0.0,0.0
22/02/2022,05:02:58,-0.001,0.0,0.0,0.0
22/02/2022,05:03:58,-0.002,0.0,0.0,0.0
22/02/2022,05:05:59,-0.001,0.0,0.0,0.0
22/02/2022,05:06:58,-0.002,0.0,0.0,0.0
22/02/2022,05:07:57,-0.002,0.0,0.0,0.0
22/02/2022,05:09:06,-0.002,0.0,0.0,0.0
22/02/2022,05:09:58,-0.003,0.0,0.0,0.0
22/02/2022,05:10:58,-0.002,0.0,0.0,0.0
22/02/2022,05:11:57,-0.002,0.0,0.0,0.0
22/02/2022,05:12:58,-0.002,0.0,0.0,0.0
22/02/2022,05:13:58,-0.002,0.0,0.0,0.0
22/02/2022,05:14:58,-0.002,0.0,0.0,0.0
22/02/2022,05:15:58,-0.002,0.0,0.0,0.0
22/02/2022,05:16:58,-0.002,0.0,0.0,0.0
22/02/2022,05:17:58,-0.001,0.0,0.0,0.0
22/02/2022,05:18:58,-0.002,0.0,0.0,0.0
22/02/2022,05:19:58,-0.002,0.0,0.0,0.0
22/02/2022,05:20:57,-0.002,0.0,0.0,0.0
22/02/2022,05:21:58,-0.002,0.0,0.0,0.0
22/02/2022,05:22:58,-0.002,0.0,0.0,0.0
22/02/2022,05:23:58,-0.001,0.0,0.0,0.0
22/02/2022,05:24:58,-0.001,0.0,0.0,0.0
22/02/2022,05:25:57,-0.002,0.0,0.0,0.0
22/02/2022,05:26:58,-0.003,0.0,0.0,0.0
22/02/2022,05:28:06,-0.001,0.0,0.0,0.0
22/02/2022,05:28:58,-0.002,0.0,0.0,0.0
22/02/2022,05:30:06,-0.002,0.0,0.0,0.0
22/02/2022,05:30:58,-0.002,0.0,0.0,0.0
22/02/2022,05:31:58,-0.002,0.0,0.0,0.0
22/02/2022,05:32:58,-0.001,0.0,0.0,0.0
22/02/2022,05:33:58,-0.002,0.0,0.0,0.0
22/02/2022,05:34:58,-0.001,0.0,0.0,0.0
22/02/2022,05:35:57,-0.002,0.0,0.0,0.0
22/02/2022,05:37:06,-0.003,0.0,0.0,0.0
22/02/2022,05:37:57,-0.001,0.0,0.0,0.0
22/02/2022,05:38:58,-0.001,0.0,0.0,0.0
22/02/2022,05:39:57,-0.002,0.0,0.0,0.0
22/02/2022,05:40:58,-0.002,0.0,0.0,0.0
22/02/2022,05:41:58,-0.001,0.0,0.0,0.0
22/02/2022,05:42:58,-0.001,0.0,0.0,0.0
22/02/2022,05:43:58,-0.001,0.0,0.0,0.0
22/02/2022,05:44:58,-0.001,0.0,0.0,0.0
22/02/2022,05:45:58,-0.001,0.0,0.0,0.0
22/02/2022,05:46:58,-0.001,0.0,0.0,0.0
22/02/2022,05:47:57,-0.002,0.0,0.0,0.0
22/02/2022,05:48:58,-0.002,0.0,0.0,0.0
22/02/2022,05:49:58,-0.001,0.0,0.0,0.0
22/02/2022,05:50:58,-0.002,0.0,0.0,0.0
22/02/2022,05:51:58,-0.002,0.0,0.0,0.0
22/02/2022,05:52:58,-0.002,0.0,0.0,0.0
22/02/2022,05:53:58,-0.001,0.0,0.0,0.0
22/02/2022,05:54:57,-0.002,0.0,0.0,0.0
22/02/2022,05:55:58,-0.002,0.0,0.0,0.0
22/02/2022,05:56:58,-0.002,0.0,0.0,0.0
22/02/2022,05:57:58,-0.001,0.0,0.0,0.0
22/02/2022,05:58:58,-0.003,0.0,0.0,0.0
22/02/2022,05:59:58,-0.002,0.0,0.0,0.0
22/02/2022,06:00:58,-0.001,0.0,0.0,0.0
22/02/2022,06:01:57,-0.001,0.0,0.0,0.0
22/02/2022,06:02:58,-0.002,0.0,0.0,0.0
22/02/2022,06:03:58,-0.002,0.0,0.0,0.0
22/02/2022,06:04:58,-0.002,0.0,0.0,0.0
22/02/2022,06:05:58,-0.001,0.0,0.0,0.0
22/02/2022,06:06:58,-0.002,0.0,0.0,0.0
22/02/2022,06:07:58,-0.002,0.0,0.0,0.0
22/02/2022,06:08:57,-0.001,0.0,0.0,0.0
22/02/2022,06:09:58,-0.002,0.0,0.0,0.0
22/02/2022,06:11:06,-0.002,0.0,0.0,0.0
22/02/2022,06:11:57,-0.002,0.0,0.0,0.0
22/02/2022,06:12:58,-0.002,0.0,0.0,0.0
22/02/2022,06:14:07,-0.003,0.0,0.0,0.0
22/02/2022,06:14:56,-0.002,0.0,0.0,0.0
22/02/2022,06:15:58,-0.002,0.0,0.0,0.0
22/02/2022,06:16:58,-0.002,0.0,0.0,0.0
22/02/2022,06:17:58,-0.001,0.0,0.0,0.0
22/02/2022,06:18:58,-0.001,0.0,0.0,0.0
22/02/2022,06:19:59,-0.002,0.0,0.0,0.0
22/02/2022,06:20:58,-0.002,0.0,0.0,0.0
22/02/2022,06:21:57,-0.002,0.0,0.0,0.0
22/02/2022,06:22:58,-0.002,0.0,0.0,0.0
22/02/2022,06:23:58,-0.001,0.0,0.0,0.0
22/02/2022,06:24:58,-0.001,0.0,0.0,0.0
22/02/2022,06:25:58,-0.002,0.0,0.0,0.0
22/02/2022,06:26:58,-0.002,0.0,0.0,0.0
22/02/2022,06:27:58,-0.001,0.0,0.0,0.0
22/02/2022,06:28:58,-0.002,0.0,0.0,0.0
22/02/2022,06:30:06,-0.002,0.0,0.0,0.0
22/02/2022,06:30:58,-0.002,0.0,0.0,0.0
22/02/2022,06:31:58,-0.002,0.0,0.0,0.0
22/02/2022,06:33:06,-0.002,0.0,0.0,0.0
22/02/2022,06:33:58,-0.002,0.0,0.0,0.0
22/02/2022,06:34:58,-0.001,0.0,0.0,0.0
22/02/2022,06:35:58,-0.002,0.0,0.0,0.0
22/02/2022,06:36:57,-0.003,0.0,0.0,0.0
22/02/2022,06:37:58,-0.000,0.0,0.0,0.0
22/02/2022,06:38:58,-0.003,0.0,0.0,0.0
22/02/2022,06:39:58,-0.002,0.0,0.0,0.0
22/02/2022,06:40:58,-0.002,0.0,0.0,0.0
22/02/2022,06:41:58,-0.001,0.0,0.0,0.0
22/02/2022,06:42:58,-0.002,0.0,0.0,0.0
22/02/2022,06:43:58,-0.002,0.0,0.0,0.0
22/02/2022,06:44:58,-0.002,0.0,0.0,0.0
22/02/2022,06:45:58,-0.002,0.0,0.0,0.0
22/02/2022,06:46:58,-0.002,0.0,0.0,0.0
22/02/2022,06:47:58,-0.001,0.0,0.0,0.0
22/02/2022,06:48:58,-0.002,0.0,0.0,0.0
22/02/2022,06:49:58,-0.002,0.0,0.0,0.0
22/02/2022,06:51:06,-0.002,0.0,0.0,0.0
22/02/2022,06:52:15,-0.002,0.0,0.0,0.0
22/02/2022,06:53:58,-0.001,0.0,0.0,0.0
22/02/2022,06:54:58,-0.002,0.0,0.0,0.0
22/02/2022,06:55:58,-0.003,0.0,0.0,0.0
22/02/2022,06:57:06,-0.002,0.0,0.0,0.0
22/02/2022,06:57:58,-0.002,0.0,0.0,0.0
22/02/2022,06:58:58,-0.002,0.0,0.0,0.0
22/02/2022,06:59:58,-0.002,0.0,0.0,0.0
22/02/2022,07:00:58,-0.003,0.0,0.0,0.0
22/02/2022,07:01:58,-0.001,0.0,0.0,0.0
22/02/2022,07:02:58,-0.002,0.0,0.0,0.0
22/02/2022,07:03:58,-0.002,0.0,0.0,0.0
22/02/2022,07:04:58,-0.002,0.0,0.0,0.0
22/02/2022,07:05:58,-0.001,0.0,0.0,0.0
22/02/2022,07:07:06,-0.001,0.0,0.0,0.0
22/02/2022,07:07:58,-0.002,0.0,0.0,0.0
22/02/2022,07:08:58,-0.001,0.0,0.0,0.0
22/02/2022,07:10:07,-0.001,0.0,0.0,0.0
22/02/2022,07:11:00,-0.001,0.0,0.0,0.0
22/02/2022,07:11:58,-0.001,0.0,0.0,0.0
22/02/2022,07:12:58,-0.001,0.0,0.0,0.0
22/02/2022,07:13:58,-0.001,0.0,0.0,0.0
22/02/2022,07:14:58,-0.001,0.0,0.0,0.0
22/02/2022,07:15:58,-0.001,0.0,0.0,0.0
22/02/2022,07:16:58,-0.001,0.0,0.0,0.0
22/02/2022,07:17:58,-0.000,0.0,0.0,0.0
22/02/2022,07:18:58,-0.001,0.0,0.0,0.0
22/02/2022,07:19:58,0.000,0.0,0.0,0.0
22/02/2022,07:20:58,0.000,0.0,0.0,0.0
22/02/2022,07:21:58,-0.001,0.0,0.0,0.0
22/02/2022,07:23:06,0.001,0.0,0.0,0.0
22/02/2022,07:23:58,0.002,0.0,0.0,0.0
22/02/2022,07:24:59,0.001,0.0,0.0,0.0
22/02/2022,07:25:59,0.001,0.0,0.0,0.0
22/02/2022,07:26:58,0.002,0.0,0.0,0.0
22/02/2022,07:27:58,0.003,0.0,0.0,0.0
22/02/2022,07:29:06,0.003,0.0,0.0,0.0
22/02/2022,07:29:56,0.004,0.0,0.0,0.0
22/02/2022,07:30:58,0.003,0.0,0.0,0.0
22/02/2022,07:31:58,0.003,0.0,0.0,0.0
22/02/2022,07:32:58,0.003,0.0,0.0,0.0
22/02/2022,07:33:58,0.003,0.0,0.0,0.0
22/02/2022,07:34:59,0.003,0.0,0.0,0.0
22/02/2022,07:35:59,0.003,0.0,0.0,0.0
22/02/2022,07:36:58,0.002,0.0,0.0,0.0
22/02/2022,07:37:58,0.001,0.0,0.0,0.0
22/02/2022,07:38:58,0.002,0.0,0.0,0.0
22/02/2022,07:39:58,0.002,0.0,0.0,0.0
22/02/2022,07:40:58,0.004,0.0,0.0,0.0
22/02/2022,07:41:58,0.003,0.0,0.0,0.0
22/02/2022,07:42:58,0.002,0.0,0.0,0.0
22/02/2022,07:43:58,0.002,0.0,0.0,0.0
22/02/2022,07:44:58,0.002,0.0,0.0,0.0
22/02/2022,07:45:58,0.004,0.0,0.0,0.0
22/02/2022,07:47:06,0.004,0.0,0.0,0.0
22/02/2022,07:47:58,0.005,0.0,0.0,0.0
22/02/2022,07:48:58,0.004,0.0,0.0,0.0
22/02/2022,07:50:06,0.003,0.0,0.0,0.0
22/02/2022,07:50:58,0.003,0.0,0.0,0.0
22/02/2022,07:51:58,0.004,0.0,0.0,0.0
22/02/2022,07:52:58,0.004,0.0,0.0,0.0
22/02/2022,07:53:58,0.005,0.0,0.0,0.0
22/02/2022,07:54:58,0.004,0.0,0.0,0.0
22/02/2022,07:55:58,0.004,0.0,0.0,0.0
22/02/2022,07:56:58,0.003,0.0,0.0,0.0
22/02/2022,07:57:59,0.004,0.0,0.0,0.0
22/02/2022,07:58:58,0.004,0.0,0.0,0.0
22/02/2022,07:59:58,0.005,0.0,0.0,0.0
22/02/2022,08:00:58,0.005,0.0,0.0,0.0
22/02/2022,08:01:58,0.005,0.0,0.0,0.0
22/02/2022,08:02:58,0.007,0.0,0.0,0.0
22/02/2022,08:03:58,0.010,0.0,0.0,0.0
22/02/2022,08:04:58,0.012,0.0,0.0,0.0
22/02/2022,08:06:07,0.016,0.0,0.001,0.001
22/02/2022,08:06:58,0.018,0.0,0.001,0.0
22/02/2022,08:07:58,0.018,0.0,0.001,0.0
22/02/2022,08:09:07,0.020,0.0,0.002,0.001
22/02/2022,08:09:58,0.021,0.0,0.002,0.0
22/02/2022,08:10:58,0.022,0.0,0.002,0.0
22/02/2022,08:11:58,0.024,0.0,0.003,0.001
22/02/2022,08:12:58,0.026,0.0,0.003,0.0
22/02/2022,08:13:58,0.027,0.0,0.003,0.0
22/02/2022,08:14:58,0.028,0.0,0.004,0.001
22/02/2022,08:15:58,0.030,0.0,0.004,0.0
22/02/2022,08:16:59,0.032,0.0,0.005,0.001
22/02/2022,08:17:58,0.033,0.0,0.005,0.0
22/02/2022,08:19:15,0.034,0.0,0.006,0.001
22/02/2022,08:20:59,0.035,0.0,0.007,0.001
22/02/2022,08:21:58,0.036,0.0,0.008,0.001
22/02/2022,08:22:58,0.036,0.0,0.008,0.0
22/02/2022,08:23:58,0.037,0.0,0.009,0.001
22/02/2022,08:25:07,0.039,0.0,0.01,0.001
22/02/2022,08:25:57,0.040,0.0,0.01,0.0
22/02/2022,08:27:06,0.044,0.0,0.011,0.001
22/02/2022,08:27:59,0.045,0.0,0.012,0.001
22/02/2022,08:28:58,0.043,0.0,0.012,0.0
22/02/2022,08:29:58,0.039,0.0,0.013,0.001
22/02/2022,08:30:58,0.034,0.0,0.014,0.001
22/02/2022,08:31:59,0.032,0.0,0.014,0.0
22/02/2022,08:33:06,0.033,0.0,0.015,0.001
22/02/2022,08:33:58,0.033,0.0,0.015,0.0
22/02/2022,08:34:59,0.038,0.0,0.016,0.001
22/02/2022,08:35:58,0.039,0.0,0.017,0.001
22/02/2022,08:36:58,0.037,0.0,0.017,0.0
22/02/2022,08:37:58,0.036,0.0,0.018,0.001
22/02/2022,08:38:59,0.039,0.0,0.018,0.0
22/02/2022,08:39:58,0.038,0.0,0.019,0.001
22/02/2022,08:40:58,0.037,0.0,0.02,0.001
22/02/2022,08:41:58,0.035,0.0,0.02,0.0
22/02/2022,08:42:58,0.034,0.0,0.021,0.001
22/02/2022,08:43:58,0.034,0.0,0.021,0.0
22/02/2022,08:45:10,0.036,0.0,0.022,0.001
22/02/2022,08:47:07,0.041,0.0,0.023,0.001
22/02/2022,08:47:57,0.041,0.0,0.024,0.001
22/02/2022,08:49:07,0.037,0.0,0.025,0.001
22/02/2022,08:49:58,0.038,0.0,0.025,0.0
22/02/2022,08:50:58,0.042,0.0,0.026,0.001
22/02/2022,08:51:58,0.038,0.0,0.027,0.001
22/02/2022,08:52:58,0.037,0.0,0.027,0.0
22/02/2022,08:53:58,0.034,0.0,0.028,0.001
22/02/2022,08:54:58,0.032,0.0,0.028,0.0
22/02/2022,08:55:59,0.033,0.0,0.029,0.001
22/02/2022,08:56:58,0.033,0.0,0.029,0.0
22/02/2022,08:58:06,0.040,0.0,0.03,0.001
22/02/2022,08:58:58,0.038,0.0,0.031,0.001
22/02/2022,08:59:58,0.039,0.0,0.031,0.0
22/02/2022,09:00:58,0.040,0.0,0.032,0.001
22/02/2022,09:01:58,0.044,0.0,0.033,0.001
22/02/2022,09:02:58,0.039,0.0,0.033,0.0
22/02/2022,09:03:59,0.036,0.0,0.034,0.001
22/02/2022,09:05:00,0.033,0.0,0.035,0.001
22/02/2022,09:05:58,0.030,0.0,0.035,0.0
22/02/2022,09:06:59,0.031,0.0,0.036,0.001
22/02/2022,09:07:58,0.031,0.0,0.036,0.0
22/02/2022,09:08:58,0.031,0.0,0.037,0.001
22/02/2022,09:09:58,0.036,0.0,0.037,0.0
22/02/2022,09:11:07,0.042,0.0,0.038,0.001
22/02/2022,09:11:57,0.047,0.0,0.039,0.001
22/02/2022,09:12:58,0.040,0.0,0.039,0.0
22/02/2022,09:13:59,0.041,0.0,0.04,0.001
22/02/2022,09:14:59,0.054,0.0,0.041,0.001
22/02/2022,09:15:59,0.065,0.0,0.042,0.001
22/02/2022,09:16:59,0.065,0.0,0.043,0.001
22/02/2022,09:17:58,0.079,0.0,0.044,0.001
22/02/2022,09:18:58,0.089,0.0,0.046,0.002
22/02/2022,09:19:58,0.087,0.0,0.047,0.001
22/02/2022,09:20:59,0.095,0.0,0.048,0.001
22/02/2022,09:21:58,0.099,0.0,0.05,0.002
22/02/2022,09:22:58,0.093,0.0,0.052,0.002
22/02/2022,09:23:58,0.093,0.0,0.053,0.001
22/02/2022,09:24:58,0.090,0.0,0.055,0.002
22/02/2022,09:25:58,0.095,0.0,0.056,0.001
22/02/2022,09:26:58,0.100,0.0,0.058,0.002
22/02/2022,09:27:58,0.113,0.0,0.06,0.002
22/02/2022,09:28:58,0.124,0.0,0.062,0.002
22/02/2022,09:29:58,0.123,0.0,0.064,0.002
22/02/2022,09:30:59,0.134,0.0,0.066,0.002
22/02/2022,09:31:59,0.151,0.0,0.068,0.002
22/02/2022,09:32:58,0.169,0.0,0.071,0.003
22/02/2022,09:33:59,0.182,0.0,0.074,0.003
22/02/2022,09:34:59,0.199,0.0,0.077,0.003
22/02/2022,09:35:59,0.204,0.0,0.08,0.003
22/02/2022,09:36:59,0.192,0.0,0.084,0.004
22/02/2022,09:38:07,0.197,0.0,0.087,0.003
22/02/2022,09:38:58,0.202,0.0,0.09,0.003
22/02/2022,09:39:58,0.208,0.0,0.094,0.004
22/02/2022,09:40:59,0.198,0.0,0.097,0.003
22/02/2022,09:41:59,0.178,0.0,0.1,0.003
22/02/2022,09:42:58,0.159,0.0,0.103,0.003
22/02/2022,09:43:58,0.164,0.0,0.106,0.003
22/02/2022,09:44:58,0.157,0.0,0.108,0.002
22/02/2022,09:45:58,0.143,0.0,0.111,0.003
22/02/2022,09:46:58,0.147,0.0,0.113,0.002
22/02/2022,09:47:58,0.146,0.0,0.116,0.003
22/02/2022,09:48:58,0.174,0.0,0.118,0.002
22/02/2022,09:49:58,0.190,0.0,0.121,0.003
22/02/2022,09:51:06,0.152,0.0,0.125,0.004
22/02/2022,09:51:58,0.170,0.0,0.127,0.002
22/02/2022,09:52:58,0.211,0.0,0.13,0.003
22/02/2022,09:54:07,0.222,1.0,0.134,0.004
22/02/2022,09:54:57,0.237,1.0,0.137,0.003
22/02/2022,09:55:59,0.219,1.0,0.141,0.004
22/02/2022,09:56:58,0.218,1.0,0.144,0.003
22/02/2022,09:57:58,0.228,1.0,0.148,0.004
22/02/2022,09:59:07,0.215,0.0,0.152,0.004
22/02/2022,10:00:07,0.220,1.0,0.156,0.004
22/02/2022,10:00:58,0.226,1.0,0.159,0.003
22/02/2022,10:01:59,0.216,0.0,0.163,0.004
22/02/2022,10:03:07,0.195,0.0,0.167,0.004
22/02/2022,10:03:58,0.197,0.0,0.17,0.003
22/02/2022,10:04:59,0.201,0.0,0.173,0.003
22/02/2022,10:06:59,0.225,1.0,0.18,0.007
22/02/2022,10:07:59,0.237,1.0,0.184,0.004
22/02/2022,10:08:58,0.241,1.0,0.188,0.004
22/02/2022,10:09:58,0.268,1.0,0.192,0.004
22/02/2022,10:10:58,0.247,1.0,0.196,0.004
22/02/2022,10:11:58,0.254,1.0,0.201,0.005
22/02/2022,10:13:07,0.254,1.0,0.206,0.005
22/02/2022,10:13:58,0.249,1.0,0.209,0.003
22/02/2022,10:14:58,0.234,1.0,0.213,0.004
22/02/2022,10:16:07,0.221,1.0,0.218,0.005
22/02/2022,10:16:57,0.217,0.0,0.221,0.003